Cloud_Cover
47 5 18 5 5 0 0 0 0 0 0 0 0 0 0 0 0 0 0 0 0 0 0 0 0 0 1 0 1 0 0 1 0 2 0 0 0 1 0 0 0 0 0
59 10 5 8 5 1 0 0 0 0 0 0 0 0 0 0 0 0 0 0 0 0 0 1 2 1 1 0 0 0 0 0 0 0 0 3 2 3 0 0 0 5 1
75 18 7 3 5 0 0 0 0 0 0 0 0 0 0 0 0 0 0 0 0 0 0 0 0 0 0 0 4 3 0 0 3 2 2 1 4 2 0 0 0 0 0
44 6 5 4 1 0 0 0 0 0 0 0 0 0 0 0 0 0 0 0 0 0 0 0 0 0 0 0 2 4 4 4 5 5 5 5 5 2 0 0 0 0 2
99 2 0 5 0 0 0 0 0 0 0 0 0 0 0 0 0 0 0 0 0 0 0 0 0 0 0 0 1 5 3 5 5 5 5 5 5 4 2 2 1 0 0
92 5 0 5 0 0 0 0 0 0 0 0 0 0 0 0 0 0 0 0 0 0 0 0 0 0 0 0 0 0 2 5 5 5 5 5 7 9 3 12 10 5 1
5 0 6 1 0 0 0 0 0 0 0 0 0 0 0 0 0 0 0 0 0 0 0 0 0 0 0 0 0 0 5 5 5 5 5 5 7 8 13 39 96 95 94
5 5 3 0 0 0 0 0 0 0 0 0 0 0 0 0 0 0 0 0 0 0 0 0 0 0 0 0 0 0 0 3 5 5 5 5 11 32 43 87 100 99 100
5 4 0 0 0 0 0 0 0 0 0 5 5 1 2 1 0 0 0 0 0 0 0 0 0 0 0 0 0 0 0 2 5 5 4 17 20 67 81 100 100 100 100
5 5 2 0 0 0 4 2 5 5 9 32 5 5 2 2 5 13 5 2 0 0 0 0 0 0 0 0 0 0 0 4 5 5 6 47 97 100 100 100 100 100 100
5 5 2 0 0 5 32 67 88 71 100 100 57 5 5 5 4 5 5 5 5 5 5 0 0 0 0 0 0 0 0 5 5 6 68 98 97 82 100 100 100 100 100
7 5 0 4 5 5 6 43 96 100 100 100 81 24 12 5 5 5 6 8 46 5 5 0 0 0 0 0 0 0 5 5 5 20 88 100 100 100 100 100 100 100 100
5 5 1 25 5 8 7 100 100 100 100 100 96 35 13 25 7 5 5 6 5 5 12 1 0 0 0 0 0 5 5 5 5 12 64 100 100 100 100 97 100 100 100
38 3 5 16 5 5 29 89 97 100 100 100 100 81 64 6 5 5 5 4 4 5 6 1 5 0 0 0 0 5 5 5 5 5 18 76 100 100 90 96 96 100 100
4 5 26 17 6 6 91 100 98 100 89 94 94 54 52 26 5 5 5 5 44 51 6 0 0 0 0 0 5 5 5 5 5 6 50 98 100 100 100 100 100 100 100
17 97 80 16 80 32 73 13 56 35 43 52 51 41 10 11 5 5 5 5 12 72 94 1 2 5 5 5 5 19 20 94 92 82 99 99 97 100 100 100 100 100 100
47 72 5 5 47 55 5 5 14 27 44 67 21 12 5 5 5 5 5 5 5 57 80 22 5 5 9 5 5 8 48 41 56 98 100 100 96 100 100 100 100 100 100
5 5 5 39 31 39 5 5 5 6 15 20 5 5 5 5 5 5 5 5 5 11 77 90 25 12 50 25 32 72 82 92 72 56 100 100 92 98 100 100 100 100 100
5 5 24 41 59 100 59 12 32 31 5 5 5 2 5 5 5 5 5 5 18 88 84 93 88 13 52 60 58 86 79 16 26 96 80 100 93 100 99 100 100 100 100
5 5 17 100 100 100 100 78 42 68 30 5 6 8 5 5 5 5 5 53 86 94 84 70 68 32 77 55 37 16 34 94 91 77 48 78 98 99 92 97 74 89 100
5 26 99 100 100 100 100 100 93 80 15 5 5 31 25 5 5 5 74 70 87 65 83 81 96 100 93 30 98 71 100 95 94 91 23 81 66 13 5 53 25 7 90
18 100 100 100 100 100 100 100 74 23 6 10 72 100 93 63 5 13 78 85 79 100 100 100 100 90 63 8 77 98 100 100 92 75 100 34 36 20 5 19 35 100 100
100 100 100 100 100 100 100 100 86 100 100 100 100 95 71 8 20 79 82 93 87 100 94 90 61 22 37 44 95 100 100 100 100 36 94 98 5 62 5 28 78 95 99
100 100 100 100 100 100 100 100 100 100 100 100 95 35 80 12 73 85 97 100 75 67 14 7 84 85 96 92 100 100 100 96 89 58 93 100 5 86 16 88 89 86 84
100 100 100 100 100 100 100 92 97 100 100 100 55 97 23 16 52 89 99 82 56 44 13 89 99 73 59 89 98 100 100 100 100 100 85 99 86 100 100 100 100 100 100
100 100 100 100 100 100 100 100 100 100 100 94 81 69 34 15 75 84 84 84 77 62 84 57 5 14 83 99 99 100 100 100 100 100 5 100 100 100 100 100 100 100 100